Simultaneous Nadir Overpasses (SNOs) Predictions

Prediction of SNOs between LANDSAT-8 and METOP-A Satellite Orbit:

Table of predicted SNOs for the next 14.0 days since TLE Epoch: 9/21/2018
Index Date (LANDSAT-8) Time (LANDSAT-8) Lat,Lon (LANDSAT-8) SZA (LANDSAT-8 ) Date (METOP-A) Time (METOP-A) Lat,Lon (METOP-A) SZA (METOP-A ) Distance(km) Time Diff (sec)
1 09/22/2018 08:32:39 -81.40, -83.37 96.21 09/22/2018 08:32:04 -81.40, -83.26 96.21 1.91 35
2 09/22/2018 09:22:05 81.40, 84.40 83.82 09/22/2018 09:22:44 81.40, 84.32 83.83 1.40 39
3 09/25/2018 04:06:56 -81.40, -16.95 95.10 09/25/2018 04:06:21 -81.40, -17.10 95.13 2.42 35
4 09/25/2018 04:56:22 81.40, 150.79 84.93 09/25/2018 04:57:00 81.40, 150.87 84.96 1.39 38
5 09/27/2018 23:41:13 -81.39, 49.44 93.99 09/27/2018 23:40:37 -81.40, 49.44 94.00 0.49 36
6 09/28/2018 00:30:39 81.40,-142.85 86.04 09/28/2018 00:31:17 81.40,-142.99 86.05 2.41 38
7 09/30/2018 19:15:29 -81.39, 115.81 92.88 09/30/2018 19:14:52 -81.40, 115.97 92.88 2.88 37
8 09/30/2018 20:04:54 81.41, -76.12 87.20 09/30/2018 20:05:31 81.41, -76.07 87.22 0.98 37
9 10/03/2018 14:49:45 -81.40,-177.46 91.73 10/03/2018 14:49:08 -81.40,-177.52 91.76 0.99 37




NCC Satellite Simultaneous Nadir Overpasses (SNOs) Prediction Service
